sat.trackr.live / text

‹ back to catalog

ECHOSTAR 23

NORAD 42070 · 2017-014A

PAYLOAD ACTIVE UNKNOWN

§ Identity

Operator
Country
US
Launch date
2017-03-16
Launch site
AFETR
Launch vehicle
Mass (kg)
RCS (m²)
13.16

Purposes: comms

External: N2YO · Heavens-Above · Gunter

§ Orbital elements

Epoch: 2026-09-13T03:34:37.983936Z

Period
1,436.12 min
Inclination
0.0233°
Eccentricity
0.0002191
Mean motion
1.00270157 rev/d
Perigee alt
35,777.8 km
Apogee alt
35,796.3 km
Semi-major
42,165.2 km
B*
0.0000e+0
RAAN
155.9339°
Arg perigee
6.9929°
Mean anomaly
132.9759°
Rev number
3,480

§ Raw data

ECHOSTAR 231 42070U 17014A   26256.14905074  .00000000  00000+0  00000+0 0  99952 42070   0.0233 155.9339 0002191   6.9929 132.9759  1.00270157 34800

JSON: /api/v1/satellites/42070 · /tle

For live sub-satellite position, see the globe view (requires WebGL).

§ Visibility from observer

Set your observer location to see the next 7 days of passes ≥ 10°. The values pass through the URL so the page stays shareable.

No JS? Fill the form by hand. The geolocation button needs JavaScript.